Location: Pagani
(40.7500°N, 14.6167°E)
Time: 11:26:24
(UTC+00:00)

Meteor 1-20 Rocket - Pass Details

Date: 15 May 2026
Orbit: 818 x 890 km, 81.2° (Epoch: 6 June)

Event Time Altitude Azimuth Distance (km) Brightness Sun altitude
Rises 19:48:27 0° 354° (N) 3,403 8.2 -15.8°
Reaches altitude 10° 19:50:54 10° 358° (N) 2,475 7.3 -16.1°
Maximum altitude 19:56:27 60° 78° (ENE) 979 4.3 -16.9°
Enters shadow 19:59:26 28° 148° (SSE) 1,576 5.0 -17.3°
